{"data":{"norad_id":57357,"epoch":"2026-09-20T05:32:42.410688Z","epoch_age_seconds":147502,"freshness":"FRESH","line1":"1 57357U 23099AF  26263.23104642  .00000144  00000+0  14756-4 0  9996","line2":"2 57357  43.0017 222.8668 0001432 261.2899  98.7791 15.27577369175955","mean_motion":15.27577369,"eccentricity":0.0001432,"inclination_deg":43.0017,"raan_deg":222.8668,"arg_perigee_deg":261.2899,"mean_anomaly_deg":98.7791,"bstar":1.4756e-5,"rev_number":17595,"period_min":94.266911072574,"perigee_km":482.07445123435,"apogee_km":484.03949718857,"semimajor_km":6861.1939742115,"source":"CELESTRAK","updated_at":"2026-09-21T09:00:33.602020Z"}}